Spokane, WA

7:45 PM PDT on August 16, 2017 (GMT -0700)
Spokane International

Weather History for KGEG - November, 2012

Change the Weather History Date:

Tuesday, November 6, 2012

  Actual Average Record
Temperature  
Mean Temperature 47 °F 39 °F  
Max Temperature 55 °F 46 °F 61 °F (2006)
Min Temperature 39 °F 32 °F 9 °F (2003)
Degree Days  
Heating Degree Days 18 26  
Month to date heating degree days 95 149  
Since 1 July heating degree days 701 937  
Cooling Degree Days 0 0  
Month to date cooling degree days 0 0  
Year to date cooling degree days 535 450  
Moisture  
Dew Point 45 °F    
Average Humidity 89    
Maximum Humidity 100    
Minimum Humidity 77    
Precipitation  
Precipitation 0.02 in 0.07 in 0.84 in (1903)
Month to date precipitation 0.30 0.39  
Year to date precipitation 15.80 12.35  
Snow  
Snow 0.00 in 0.10 in 0.30 in (1975)
Month to date snowfall 0.0 0.5  
Since 1 July snowfall T 0.6  
Since 1 September snowfall T 0.6  
Snow Depth 0.00 in    
Sea Level Pressure  
Sea Level Pressure 30.03 in    
Wind  
Wind Speed 6 mph (ENE)    
Max Wind Speed 17 mph    
Max Gust Speed 22 mph    
Visibility 4 miles    
Events Fog , Rain    
T = Trace of Precipitation, MM = Missing Value Source: NWS Daily Summary

Daily Weather History Graph

Daily Weather History Graph

Search for Another Location

Airport or City:

Trip Planner

Search our weather history database for the weather conditions in past years. The results will help you decide how hot, cold, wet, or windy it might be!

Date:

Astronomy

Nov. 06, 2012 Rise Set
Actual Time 6:42 AM PST 4:24 PM PST
Civil Twilight 6:09 AM PST 4:56 PM PST
Nautical Twilight 5:33 AM PST 5:33 PM PST
Astronomical Twilight 4:57 AM PST 6:09 PM PST
Moon 11:14 PM PST (11/6) 12:33 PM PST (11/6)
Length of Visible Light 10h 47m
Length of Day
9h 41m
Waning Gibbous, 52% of the Moon is Illuminated
Nov 6
Waning Gibbous
Nov 6
Last Quarter
Nov 13
New
Nov 20
First Quarter
Nov 28
Full

Hourly Weather History & Observations

Time (PST) Temp. Windchill Dew Point Humidity Pressure Visibility Wind Dir Wind Speed Gust Speed Precip Events Conditions
12:53 AM 42.1 °F 40.2 °F 39.9 °F 92% 30.21 in 10.0 mi East 3.5 mph - N/A   Mostly Cloudy
1:18 AM 42.8 °F 40.1 °F 41.0 °F 93% 30.19 in 2.0 mi ENE 4.6 mph - N/A   Mostly Cloudy
1:33 AM 41.0 °F - 41.0 °F 100% 30.19 in 0.5 mi Calm Calm - N/A Fog Fog
1:53 AM 41.0 °F - 41.0 °F 100% 30.20 in 0.5 mi Calm Calm - N/A Fog Fog
2:53 AM 39.0 °F - 39.0 °F 100% 30.19 in 0.5 mi Calm Calm - N/A Fog Fog
3:53 AM 39.0 °F 36.8 °F 39.0 °F 100% 30.18 in 0.5 mi ENE 3.5 mph - N/A Fog Fog
4:53 AM 41.0 °F 37.1 °F 41.0 °F 100% 30.17 in 0.2 mi NE 5.8 mph - N/A Fog Fog
5:53 AM 41.0 °F 37.1 °F 39.9 °F 96% 30.15 in 0.2 mi ENE 5.8 mph - N/A Fog Fog
6:53 AM 41.0 °F 36.4 °F 41.0 °F 100% 30.15 in 0.2 mi ENE 6.9 mph - N/A Fog Fog
7:43 AM 42.8 °F 37.5 °F 41.0 °F 93% 30.11 in 0.1 mi ENE 9.2 mph - N/A Fog Fog
7:53 AM 42.1 °F 39.2 °F 42.1 °F 100% 30.14 in 0.1 mi ENE 4.6 mph - N/A Fog Fog
8:53 AM 43.0 °F 39.5 °F 42.1 °F 97% 30.12 in 0.1 mi ENE 5.8 mph - N/A Fog Fog
9:53 AM 44.1 °F 40.1 °F 43.0 °F 96% 30.11 in 0.1 mi ENE 6.9 mph - N/A Fog Fog
10:53 AM 45.0 °F 42.6 °F 44.1 °F 97% 30.08 in 0.2 mi NE 4.6 mph - N/A Fog Fog
11:42 AM 46.4 °F 44.3 °F 44.6 °F 93% 30.03 in 0.5 mi NNE 4.6 mph - N/A Fog Fog
11:53 AM 46.9 °F - 46.0 °F 97% 30.05 in 0.5 mi NE 4.6 mph - N/A   Overcast
12:18 PM 46.4 °F 44.3 °F 46.4 °F 100% 30.00 in 1.0 mi NE 4.6 mph - N/A   Mostly Cloudy
12:22 PM 48.2 °F - 46.4 °F 93% 30.00 in 2.0 mi NNE 3.5 mph - N/A   Mostly Cloudy
12:23 PM 48.2 °F - 46.4 °F 93% 30.00 in 6.0 mi NE 3.5 mph - N/A   Mostly Cloudy
12:53 PM 51.1 °F - 46.0 °F 83% 30.00 in 10.0 mi NE 3.5 mph - N/A   Mostly Cloudy
1:53 PM 54.0 °F - 46.9 °F 77% 29.97 in 10.0 mi NE 4.6 mph - N/A   Overcast
2:53 PM 54.0 °F - 48.0 °F 80% 29.96 in 10.0 mi North 3.5 mph - N/A   Overcast
3:53 PM 53.1 °F - 48.0 °F 83% 29.93 in 10.0 mi Calm Calm - N/A   Overcast
4:53 PM 51.1 °F - 48.0 °F 89% 29.91 in 10.0 mi Calm Calm - N/A   Overcast
5:53 PM 50.0 °F - 46.0 °F 86% 29.90 in 10.0 mi Calm Calm - N/A   Mostly Cloudy
6:53 PM 52.0 °F - 46.0 °F 80% 29.89 in 10.0 mi SSW 9.2 mph - N/A   Overcast
7:53 PM 53.1 °F - 48.0 °F 83% 29.89 in 10.0 mi SSW 9.2 mph - 0.00 in Rain Light Rain
8:53 PM 53.1 °F - 50.0 °F 89% 29.88 in 10.0 mi SSW 11.5 mph - 0.00 in   Overcast
9:20 PM 51.8 °F - 50.0 °F 94% 29.87 in 7.0 mi SW 15.0 mph - 0.00 in   Mostly Cloudy
9:41 PM 51.8 °F - 50.0 °F 94% 29.87 in 4.0 mi SSW 15.0 mph - 0.00 in Rain Light Rain
9:53 PM 52.0 °F - 50.0 °F 93% 29.89 in 4.0 mi SSW 13.8 mph - 0.01 in Rain Light Rain
10:53 PM 51.1 °F - 48.9 °F 92% 29.89 in 5.0 mi SW 15.0 mph - 0.00 in Rain Light Rain
11:53 PM 51.1 °F - 48.9 °F 92% 29.88 in 5.0 mi SSW 13.8 mph - 0.01 in   Mostly Cloudy